RH
13 11 14 13 15 18 21 20 17 12 9 11 12 12 11 10 10 8 7 6 6 6 6 6 6 11 27 42 61 76 94 96 100 98 96 96 94 100 96 97 100 80 73 72
7 13 13 16 14 20 26 23 17 15 14 16 16 15 12 11 10 10 9 8 8 8 7 6 8 11 25 42 58 71 90 95 100 100 91 87 87 98 94 98 99 87 80 82
9 10 13 13 12 19 16 16 20 25 23 22 24 24 18 14 13 12 11 9 8 8 8 7 7 15 23 39 54 67 88 93 100 98 98 96 74 79 98 99 98 90 79 75
10 9 10 12 14 18 21 14 20 27 28 31 17 26 16 12 10 8 9 10 10 9 8 8 8 8 25 38 51 65 85 96 98 99 84 91 77 68 71 90 96 84 80 74
12 12 12 15 22 19 20 18 23 26 26 27 26 27 17 11 11 10 9 8 8 8 8 8 7 8 11 39 54 67 82 94 92 99 93 86 81 73 67 80 96 92 84 82
12 10 14 15 16 18 17 24 22 21 22 35 25 22 16 27 45 40 37 38 38 38 10 7 8 8 8 36 59 68 86 97 91 96 93 83 82 76 72 67 87 91 88 85
15 10 14 18 22 22 20 26 36 21 32 33 28 31 69 42 41 42 46 50 54 60 62 56 32 8 8 32 65 67 83 96 93 89 92 89 82 78 72 66 68 89 88 89
27 26 20 16 24 36 26 28 51 67 36 37 27 47 89 44 42 43 49 56 64 68 71 74 77 67 39 20 74 83 83 100 98 91 88 90 85 82 72 68 64 82 84 83
35 28 18 17 16 20 31 34 24 59 46 42 32 54 36 41 49 47 54 57 67 80 86 87 87 88 86 57 56 81 93 93 92 100 90 90 90 83 72 68 64 68 78 82
26 39 22 16 16 20 37 22 40 58 67 64 88 85 80 70 71 57 65 59 79 98 97 96 96 99 97 85 56 73 81 90 98 94 98 94 96 89 73 66 64 60 66 67
24 30 30 19 25 34 32 39 36 40 57 70 72 88 84 90 87 81 83 73 84 99 100 100 98 99 100 98 67 73 89 98 99 98 98 97 96 96 82 68 67 61 58 62
26 41 54 43 17 16 40 35 49 63 57 69 70 92 58 73 90 84 92 94 85 100 100 99 100 100 100 99 76 67 90 94 84 92 100 100 100 98 88 75 70 63 62 60
43 49 63 29 22 47 33 53 44 46 65 88 71 86 49 57 84 83 94 98 96 99 100 99 100 100 100 98 96 85 84 90 89 91 99 100 98 99 93 81 67 68 63 63
25 40 45 76 40 27 69 75 43 59 77 88 77 73 72 74 93 90 94 98 99 98 100 98 100 100 100 100 100 100 96 78 78 89 99 100 95 99 98 89 78 70 61 63
21 29 27 22 20 44 59 78 49 73 90 86 82 85 84 91 96 94 95 95 98 98 98 99 100 100 100 100 100 100 100 100 96 87 100 97 88 97 99 94 87 76 74 69
17 25 20 23 25 80 52 49 66 57 69 72 61 77 83 65 95 85 94 96 96 98 98 99 100 100 100 100 100 100 100 100 99 99 90 99 76 94 98 98 90 84 76 70
20 24 27 28 70 73 63 58 82 50 74 77 82 88 61 70 91 95 95 96 97 99 99 99 99 99 100 99 100 100 100 100 100 100 100 95 80 99 98 100 96 90 83 82
20 30 29 33 49 75 58 29 67 70 46 52 60 60 67 66 83 69 73 90 98 100 99 98 99 98 98 99 100 100 100 100 100 100 100 99 96 99 98 100 100 98 94 96
17 23 46 79 69 59 38 26 36 47 77 35 47 51 59 54 42 44 46 50 69 90 99 100 96 98 96 99 98 99 100 93 99 98 100 100 100 100 99 98 100 100 100 100
16 17 35 53 48 72 43 25 22 23 78 30 33 40 47 50 64 57 43 38 39 51 71 91 99 95 96 96 95 97 99 100 88 98 100 100 100 100 100 100 100 100 99 100
26 28 34 35 53 59 22 22 23 50 60 29 28 30 35 57 51 38 31 31 34 34 41 54 78 95 92 97 97 94 92 87 97 88 91 100 100 100 100 100 100 100 100 100
29 48 43 36 46 63 23 22 42 35 28 27 25 28 32 32 31 31 30 27 28 30 30 34 45 68 77 72 80 96 98 98 81 96 89 82 99 100 100 100 100 100 100 100
31 32 49 40 28 21 22 20 21 23 24 25 27 30 30 29 30 30 31 30 28 27 28 30 31 41 55 68 60 62 88 96 97 92 97 96 86 95 100 99 100 99 100 100
21 22 32 24 21 18 20 22 26 27 28 28 30 33 37 37 34 31 31 32 32 30 28 31 30 30 36 46 59 52 57 67 80 86 92 94 99 92 77 93 99 98 100 100
25 23 26 24 20 23 24 27 27 27 28 30 33 34 35 36 37 36 34 34 34 34 35 38 32 29 32 33 38 51 48 54 66 67 76 86 86 97 99 75 90 95 99 100
23 29 27 29 24 27 29 29 29 29 30 32 33 33 32 34 36 36 36 36 38 42 42 40 36 32 34 34 31 35 49 50 52 56 57 75 73 70 88 98 91 86 89 94
Wind_Speed
3 5 7 12 12 15 17 20 26 26 24 24 26 27 26 27 32 27 27 29 25 26 22 23 24 28 32 32 34 36 39 38 37 38 31 27 30 36 37 35 35 42 33 34
10 9 10 10 13 11 16 21 24 24 23 21 23 25 24 24 26 32 34 33 28 29 31 26 25 28 34 35 35 38 42 43 43 43 36 31 23 34 37 36 35 38 32 34
5 8 9 12 15 11 16 21 20 22 24 22 23 27 28 28 32 37 36 34 35 35 32 32 29 27 31 37 37 39 42 42 45 45 40 30 23 27 30 35 31 35 36 35
3 10 11 13 14 14 19 22 21 23 20 19 20 18 21 19 18 20 27 35 37 37 35 36 33 31 32 35 35 37 41 42 44 48 43 34 35 33 33 38 35 38 40 37
12 13 11 13 12 19 24 21 22 27 26 21 24 13 17 19 21 20 21 27 27 28 34 35 35 35 32 33 34 37 41 44 44 46 40 39 37 35 33 32 38 39 40 35
19 4 3 9 17 17 18 25 28 29 22 17 25 19 17 10 27 27 30 41 43 44 23 29 33 33 35 33 35 37 39 42 44 47 42 42 41 38 36 36 36 42 42 41
16 3 4 5 25 15 20 18 12 12 10 9 8 6 17 24 25 26 26 37 39 39 42 39 28 29 30 33 37 42 46 45 46 43 48 42 44 42 40 40 40 41 43 46
12 13 15 22 18 12 23 10 6 9 13 17 14 5 8 26 31 33 36 38 40 41 42 41 38 30 26 29 36 38 46 48 45 44 46 45 44 44 41 43 43 41 43 48
14 13 31 28 7 11 11 11 15 16 22 17 7 14 8 31 31 35 40 42 45 45 43 43 42 36 34 32 37 43 41 50 54 45 48 51 47 47 45 42 44 43 43 41
15 28 24 21 15 7 13 12 9 6 6 7 7 9 13 29 29 30 31 41 46 47 48 48 42 39 36 32 26 42 42 45 50 51 47 51 49 46 46 42 46 44 42 40
24 16 20 21 14 12 11 8 8 10 8 5 6 8 15 22 24 27 27 38 41 43 41 43 42 36 30 30 24 36 40 42 45 49 50 49 53 46 43 44 45 43 43 43
16 13 18 23 21 13 16 7 10 7 11 11 7 6 20 22 22 32 35 36 40 43 43 42 40 35 29 25 17 22 36 38 38 47 47 47 44 51 44 43 40 43 40 41
15 8 13 14 10 15 16 14 11 12 9 8 6 7 20 27 27 37 35 38 42 49 45 42 38 40 38 32 16 18 23 38 34 40 43 44 44 43 49 45 44 39 40 38
21 14 16 11 16 17 12 13 19 17 8 8 14 19 25 26 22 34 38 40 40 48 45 39 39 46 44 41 32 11 3 30 31 37 36 41 41 44 48 43 42 40 41 40
14 16 21 20 20 5 10 18 18 20 17 12 17 16 21 22 21 32 33 41 40 43 47 44 49 50 45 50 47 27 9 16 26 35 29 37 33 35 37 44 41 40 38 40
18 16 17 20 16 8 17 18 17 19 17 12 15 16 20 30 25 35 37 41 42 43 44 52 51 51 54 53 50 45 28 9 23 23 30 32 25 32 38 42 44 42 40 39
12 12 14 13 6 8 20 18 11 18 16 13 15 16 23 24 24 32 35 40 42 43 47 49 52 52 50 53 50 50 45 26 10 18 22 24 29 34 37 37 38 39 42 42
13 13 8 9 7 13 9 17 3 17 18 16 15 17 21 25 21 29 33 38 43 47 49 46 45 52 56 52 42 50 53 46 31 16 12 29 32 32 31 34 33 36 37 42
12 10 6 6 8 3 20 21 16 12 10 20 19 20 23 28 24 27 34 34 36 40 41 41 44 47 47 49 52 42 43 56 49 36 21 10 17 27 30 32 32 32 34 36
11 9 8 8 9 7 14 20 27 18 10 27 25 23 25 29 15 14 34 35 36 37 38 41 36 39 43 44 41 52 46 42 53 46 36 25 12 14 25 28 32 32 36 36
11 10 7 8 5 7 15 19 22 14 12 25 24 25 25 17 20 27 30 30 29 29 33 35 36 34 30 34 36 42 43 47 36 42 44 38 27 15 9 17 26 32 35 36
8 7 6 6 7 4 17 15 12 11 19 22 24 26 27 26 27 28 31 29 28 30 31 31 32 35 37 36 34 36 37 34 39 36 39 43 38 33 18 12 12 16 20 24
3 4 5 3 4 5 8 12 14 17 20 22 24 26 27 29 29 29 30 30 29 27 27 26 29 29 29 27 30 28 29 33 27 34 34 34 40 37 36 27 21 14 14 19
4 1 5 7 2 10 12 15 20 24 25 27 27 27 28 31 31 31 27 27 28 27 27 26 27 25 27 27 27 29 29 27 23 26 26 29 27 32 35 35 34 29 24 15
10 7 7 10 7 15 14 21 24 25 27 29 26 26 27 30 31 31 32 29 27 25 24 26 25 22 22 23 23 22 25 25 27 28 29 24 26 24 23 30 29 31 28 29
15 5 6 9 16 14 20 23 25 28 31 30 30 31 30 28 29 31 31 31 29 26 26 24 24 22 21 20 19 19 21 24 24 23 23 23 24 12 20 18 21 21 25 26
Wind_Direction
327 268 8 329 314 303 300 289 285 285 287 280 273 276 274 275 272 274 265 256 252 259 258 246 228 220 213 208 202 202 203 195 190 190 192 198 206 203 195 202 195 191 185 182
222 50 3 314 304 302 297 304 296 303 293 284 276 273 274 262 259 259 261 265 255 256 256 250 234 219 214 209 204 202 209 201 191 194 191 194 193 196 197 199 197 185 185 178
28 19 326 317 319 334 309 303 301 309 316 301 287 275 266 262 259 263 263 258 257 257 257 252 240 224 218 211 208 204 208 209 199 198 194 192 189 192 193 188 188 196 187 188
66 345 330 321 328 354 310 317 299 292 286 277 282 288 286 287 274 243 236 240 247 252 252 251 250 234 220 216 211 208 204 209 204 203 199 196 191 195 195 196 188 191 188 191
357 324 329 333 353 321 302 312 293 279 273 270 266 252 262 250 252 258 258 259 260 253 248 249 244 242 233 214 209 208 204 211 214 205 199 193 196 199 198 195 195 190 187 194
331 258 311 341 339 323 309 305 295 263 248 244 251 247 252 359 15 3 359 0 357 355 280 250 251 248 236 209 200 213 204 207 215 209 200 199 195 198 196 194 194 197 192 194
319 341 357 358 333 326 337 330 320 294 202 227 355 270 35 20 17 9 359 350 348 351 348 348 329 253 244 209 198 208 212 204 212 215 202 202 199 198 197 194 193 193 192 194
341 317 7 334 313 301 301 323 317 308 316 307 288 339 38 19 9 11 2 355 351 348 342 335 330 319 308 233 199 200 211 206 205 212 206 200 202 199 197 198 195 196 195 199
313 302 319 300 300 309 325 304 312 268 269 271 323 42 53 10 7 4 5 2 356 350 340 332 325 319 312 300 203 200 203 214 211 206 207 204 204 200 198 200 197 197 199 201
312 301 304 293 299 282 283 302 324 313 285 307 79 57 3 1 2 360 3 3 357 348 344 338 328 319 311 303 282 203 213 212 211 208 205 208 203 204 201 202 198 200 201 201
315 298 314 309 302 314 319 328 323 294 253 291 323 65 12 6 7 1 352 359 356 346 339 337 332 325 315 309 276 209 207 212 212 211 209 212 212 204 206 203 205 201 203 201
323 308 295 301 294 267 347 344 341 317 303 314 290 82 21 13 4 3 356 354 358 347 341 340 337 344 348 327 287 264 203 215 219 217 209 209 213 210 207 206 205 205 203 203
328 307 309 311 336 352 325 21 6 328 277 16 20 34 8 7 1 3 355 354 359 349 343 345 345 360 13 1 320 273 231 213 214 211 212 205 211 207 207 207 205 207 203 203
340 317 329 327 317 319 358 37 40 32 21 335 20 15 5 360 352 359 356 351 359 351 347 342 356 8 16 8 12 345 227 216 213 212 211 214 219 214 211 204 203 204 208 205
347 323 319 318 305 1 50 44 46 40 22 20 20 18 3 355 343 0 354 354 358 352 349 347 7 8 11 12 17 26 58 186 211 210 203 213 219 223 218 207 204 202 205 205
344 322 315 298 309 131 50 32 58 52 34 24 20 22 355 354 356 4 359 357 355 350 350 358 4 8 14 14 14 24 32 85 206 211 204 209 224 223 221 208 210 202 203 209
335 327 313 298 21 66 35 14 35 67 51 23 23 5 359 356 14 5 356 356 353 350 352 1 4 7 7 14 17 23 30 43 111 200 208 214 229 218 215 212 211 212 208 207
337 339 327 311 331 56 27 27 137 55 40 38 26 15 10 355 4 5 4 360 356 353 356 1 359 5 17 10 18 23 28 38 49 78 144 195 212 212 219 213 207 209 213 212
352 334 344 344 71 114 24 12 347 320 32 27 20 9 9 352 355 3 360 4 358 357 355 356 8 12 6 18 18 22 21 29 36 47 53 72 183 198 212 216 217 217 218 220
356 346 15 26 54 41 9 1 343 322 58 9 9 1 1 349 355 353 349 355 354 358 358 359 3 9 11 8 18 20 22 24 25 31 43 48 68 173 199 204 213 221 222 223
12 347 5 2 5 65 16 9 354 26 344 346 353 352 352 340 337 333 340 346 349 351 352 0 4 4 4 8 11 18 26 29 21 21 33 45 50 69 131 185 204 212 217 222
6 326 3 333 353 352 357 5 23 351 338 340 343 342 335 331 331 334 334 338 342 345 349 354 357 1 3 8 10 13 15 15 27 16 29 30 43 49 66 110 149 179 190 204
3 355 314 339 354 332 319 347 354 347 336 337 338 335 331 326 327 328 327 328 333 336 339 345 351 353 358 2 11 16 9 17 14 22 25 31 28 33 51 68 76 104 146 165
197 261 285 308 279 344 325 337 346 340 342 338 336 337 334 330 327 324 325 324 324 325 330 337 340 343 348 353 358 6 10 10 14 20 18 25 32 26 29 48 52 71 75 81
288 331 298 283 282 345 331 336 333 329 332 333 333 333 331 328 326 325 324 322 319 319 319 322 320 328 335 344 352 356 357 2 12 16 17 17 25 19 24 37 32 42 51 63
262 267 285 321 336 327 321 322 323 328 329 329 328 329 330 329 325 324 321 320 318 319 315 316 314 316 321 326 335 343 353 358 1 14 7 9 18 6 24 31 35 38 36 38